Time,TemperatureF,DewpointF,PressureIn,WindDirection,WindDirectionDegrees,WindSpeedMPH,WindSpeedGustMPH,Humidity,HourlyPrecipIn,Conditions,Clouds,dailyrainin,SolarRadiationWatts/m^2,SoftwareType,DateUTC
2013-04-17 00:02:00,30.0,22.0,-100.00,NNW,344,3.0,7.0,71,0.00,,,0.02,0.000000,,2013-04-17 07:02:00,
2013-04-17 00:12:00,30.0,22.0,-100.00,NNW,344,3.0,7.0,71,0.00,,,0.02,0.000000,,2013-04-17 07:12:00,
2013-04-17 00:22:00,30.0,22.0,-100.00,NNW,344,3.0,7.0,71,0.00,,,0.02,0.000000,,2013-04-17 07:22:00,
2013-04-17 00:32:00,30.0,22.0,-100.00,NNW,344,3.0,7.0,71,0.00,,,0.02,0.000000,,2013-04-17 07:32:00,
2013-04-17 00:52:00,30.0,21.0,-100.00,North,349,3.0,5.0,70,0.00,,,0.02,0.000000,,2013-04-17 07:52:00,
2013-04-17 01:02:00,30.0,21.0,-100.00,North,349,3.0,5.0,70,0.00,,,0.02,0.000000,,2013-04-17 08:02:00,
2013-04-17 01:12:00,30.0,21.0,-100.00,North,349,3.0,5.0,70,0.00,,,0.02,0.000000,,2013-04-17 08:12:00,
2013-04-17 01:22:00,30.0,21.0,-100.00,North,349,3.0,5.0,70,0.00,,,0.02,0.000000,,2013-04-17 08:22:00,
2013-04-17 01:32:00,30.0,21.0,-100.00,North,349,3.0,5.0,70,0.00,,,0.02,0.000000,,2013-04-17 08:32:00,
2013-04-17 01:52:00,30.0,20.0,-100.00,NNW,336,3.0,5.0,65,0.00,,,0.02,0.000000,,2013-04-17 08:52:00,
2013-04-17 02:02:00,30.0,20.0,-100.00,NNW,336,3.0,5.0,65,0.00,,,0.02,0.000000,,2013-04-17 09:02:00,
2013-04-17 02:12:00,30.0,20.0,-100.00,NNW,336,3.0,5.0,65,0.00,,,0.02,0.000000,,2013-04-17 09:12:00,
2013-04-17 02:22:00,30.0,20.0,-100.00,NNW,336,3.0,5.0,65,0.00,,,0.02,0.000000,,2013-04-17 09:22:00,
2013-04-17 02:32:00,30.0,20.0,-100.00,NNW,336,3.0,5.0,65,0.00,,,0.02,0.000000,,2013-04-17 09:32:00,
2013-04-17 02:52:00,31.0,18.0,-100.00,NNW,338,4.0,6.0,59,0.00,,,0.02,0.000000,,2013-04-17 09:52:00,
2013-04-17 03:02:00,31.0,18.0,-100.00,NNW,338,4.0,6.0,59,0.00,,,0.02,0.000000,,2013-04-17 10:02:00,
2013-04-17 03:12:00,31.0,18.0,-100.00,NNW,338,4.0,6.0,59,0.00,,,0.02,0.000000,,2013-04-17 10:12:00,
2013-04-17 03:23:00,31.0,18.0,-100.00,NNW,338,4.0,6.0,59,0.00,,,0.02,0.000000,,2013-04-17 10:23:00,
2013-04-17 03:32:00,31.0,18.0,-100.00,NNW,338,4.0,6.0,59,0.00,,,0.02,0.000000,,2013-04-17 10:32:00,
2013-04-17 03:52:00,30.0,16.0,-100.00,North,2,3.0,5.0,55,0.00,,,0.02,0.000000,,2013-04-17 10:52:00,
2013-04-17 04:02:00,30.0,16.0,-100.00,North,2,3.0,5.0,55,0.00,,,0.02,0.000000,,2013-04-17 11:02:00,
2013-04-17 04:11:00,30.0,16.0,-100.00,North,2,3.0,5.0,55,0.00,,,0.02,0.000000,,2013-04-17 11:11:00,
2013-04-17 04:22:00,30.0,16.0,-100.00,North,2,3.0,5.0,55,0.00,,,0.02,0.000000,,2013-04-17 11:22:00,
2013-04-17 04:32:00,30.0,16.0,-100.00,North,2,3.0,5.0,55,0.00,,,0.02,0.000000,,2013-04-17 11:32:00,
2013-04-17 04:52:00,30.0,15.0,-100.00,North,2,3.0,6.0,52,0.00,,,0.02,0.000000,,2013-04-17 11:52:00,
2013-04-17 05:02:00,30.0,15.0,-100.00,North,2,3.0,6.0,52,0.00,,,0.02,0.000000,,2013-04-17 12:02:00,
2013-04-17 05:12:00,30.0,15.0,-100.00,North,2,3.0,6.0,52,0.00,,,0.02,0.000000,,2013-04-17 12:12:00,
2013-04-17 05:22:00,30.0,15.0,-100.00,North,2,3.0,6.0,52,0.00,,,0.02,0.000000,,2013-04-17 12:22:00,
2013-04-17 05:32:00,30.0,15.0,-100.00,North,2,3.0,6.0,52,0.00,,,0.02,0.000000,,2013-04-17 12:32:00,
2013-04-17 05:52:00,30.0,17.0,-100.00,North,359,3.0,6.0,57,0.00,,,0.02,0.000000,,2013-04-17 12:52:00,
2013-04-17 06:02:00,30.0,17.0,-100.00,North,359,3.0,6.0,57,0.00,,,0.02,0.000000,,2013-04-17 13:02:00,
2013-04-17 06:12:00,30.0,17.0,-100.00,North,359,3.0,6.0,57,0.00,,,0.02,0.000000,,2013-04-17 13:12:00,
2013-04-17 06:22:00,30.0,17.0,-100.00,North,359,3.0,6.0,57,0.00,,,0.02,0.000000,,2013-04-17 13:22:00,
2013-04-17 06:32:00,30.0,17.0,-100.00,North,359,3.0,6.0,57,0.00,,,0.02,0.000000,,2013-04-17 13:32:00,
2013-04-17 06:52:00,31.0,17.0,-100.00,North,4,2.0,6.0,55,0.00,,,0.02,4.000000,,2013-04-17 13:52:00,
2013-04-17 07:02:00,31.0,17.0,-100.00,North,4,2.0,6.0,55,0.00,,,0.02,4.000000,,2013-04-17 14:02:00,
2013-04-17 07:12:00,31.0,17.0,-100.00,North,4,2.0,6.0,55,0.00,,,0.02,4.000000,,2013-04-17 14:12:00,
2013-04-17 07:22:00,31.0,17.0,-100.00,North,4,2.0,6.0,55,0.00,,,0.02,4.000000,,2013-04-17 14:22:00,
2013-04-17 07:32:00,31.0,17.0,-100.00,North,4,2.0,6.0,55,0.00,,,0.02,4.000000,,2013-04-17 14:32:00,
2013-04-17 07:52:00,36.0,18.0,-100.00,North,10,3.0,6.0,47,0.00,,,0.02,75.000000,,2013-04-17 14:52:00,
2013-04-17 08:02:00,36.0,18.0,-100.00,North,10,3.0,6.0,47,0.00,,,0.02,75.000000,,2013-04-17 15:02:00,
2013-04-17 08:53:00,39.0,14.0,-100.00,North,358,4.0,9.0,36,-99.99,,,0.00,304.000000,,2013-04-17 15:53:00,
2013-04-17 09:03:00,39.0,14.0,-100.00,North,358,4.0,9.0,36,-99.99,,,0.00,304.000000,,2013-04-17 16:03:00,
2013-04-17 09:52:00,38.0,16.0,-100.00,South,189,3.0,9.0,40,-99.99,,,0.00,439.000000,,2013-04-17 16:52:00,
2013-04-17 10:02:00,38.0,16.0,-100.00,South,189,3.0,9.0,40,-99.99,,,0.00,439.000000,,2013-04-17 17:02:00,
2013-04-17 10:12:00,38.0,16.0,-100.00,South,189,3.0,9.0,40,-99.99,,,0.00,439.000000,,2013-04-17 17:12:00,
2013-04-17 10:22:00,38.0,16.0,-100.00,South,189,3.0,9.0,40,-99.99,,,0.00,439.000000,,2013-04-17 17:22:00,
2013-04-17 10:32:00,38.0,16.0,-100.00,South,189,3.0,9.0,40,-99.99,,,0.00,439.000000,,2013-04-17 17:32:00,
2013-04-17 10:52:00,40.0,24.0,-100.00,South,172,5.0,6.0,52,0.00,,,0.00,361.000000,,2013-04-17 17:52:00,
2013-04-17 11:02:00,40.0,24.0,-100.00,South,172,5.0,6.0,52,0.00,,,0.00,361.000000,,2013-04-17 18:02:00,
2013-04-17 11:12:00,40.0,24.0,-100.00,South,172,5.0,6.0,52,0.00,,,0.00,361.000000,,2013-04-17 18:12:00,
2013-04-17 11:22:00,40.0,24.0,-100.00,South,172,5.0,6.0,52,0.00,,,0.00,361.000000,,2013-04-17 18:22:00,
2013-04-17 11:32:00,40.0,24.0,-100.00,South,172,5.0,6.0,52,0.00,,,0.00,361.000000,,2013-04-17 18:32:00,
2013-04-17 11:52:00,44.0,22.0,-100.00,SSE,166,5.0,8.0,42,0.00,,,0.00,687.000000,,2013-04-17 18:52:00,
2013-04-17 12:02:00,44.0,22.0,-100.00,SSE,166,5.0,8.0,42,0.00,,,0.00,687.000000,,2013-04-17 19:02:00,
2013-04-17 12:32:00,44.0,22.0,-100.00,SSE,166,5.0,8.0,42,0.00,,,0.00,687.000000,,2013-04-17 19:32:00,
2013-04-17 12:52:00,43.0,20.0,-100.00,SSE,167,7.0,10.0,39,0.00,,,0.00,824.000000,,2013-04-17 19:52:00,
2013-04-17 13:02:00,43.0,20.0,-100.00,SSE,167,7.0,10.0,39,0.00,,,0.00,824.000000,,2013-04-17 20:02:00,
2013-04-17 13:12:00,43.0,20.0,-100.00,SSE,167,7.0,10.0,39,0.00,,,0.00,824.000000,,2013-04-17 20:12:00,
2013-04-17 13:22:00,43.0,20.0,-100.00,SSE,167,7.0,10.0,39,0.00,,,0.00,824.000000,,2013-04-17 20:22:00,
2013-04-17 13:32:00,43.0,20.0,-100.00,SSE,167,7.0,10.0,39,0.00,,,0.00,824.000000,,2013-04-17 20:32:00,
2013-04-17 13:52:00,44.0,19.0,-100.00,SSE,167,6.0,11.0,36,0.00,,,0.00,792.000000,,2013-04-17 20:52:00,
2013-04-17 14:02:00,44.0,19.0,-100.00,SSE,167,6.0,11.0,36,0.00,,,0.00,792.000000,,2013-04-17 21:02:00,
2013-04-17 14:12:00,44.0,19.0,-100.00,SSE,167,6.0,11.0,36,0.00,,,0.00,792.000000,,2013-04-17 21:12:00,
2013-04-17 14:22:00,44.0,19.0,-100.00,SSE,167,6.0,11.0,36,0.00,,,0.00,792.000000,,2013-04-17 21:22:00,
2013-04-17 14:32:00,44.0,19.0,-100.00,SSE,167,6.0,11.0,36,0.00,,,0.00,792.000000,,2013-04-17 21:32:00,
2013-04-17 14:53:00,44.0,19.0,-100.00,South,186,4.0,12.0,36,0.00,,,0.00,481.000000,,2013-04-17 21:53:00,
2013-04-17 15:02:00,44.0,19.0,-100.00,South,186,4.0,12.0,36,0.00,,,0.00,481.000000,,2013-04-17 22:02:00,
2013-04-17 15:12:00,44.0,19.0,-100.00,South,186,4.0,12.0,36,0.00,,,0.00,481.000000,,2013-04-17 22:12:00,
2013-04-17 15:22:00,44.0,19.0,-100.00,South,186,4.0,12.0,36,0.00,,,0.00,481.000000,,2013-04-17 22:22:00,
2013-04-17 15:33:00,44.0,19.0,-100.00,South,186,4.0,12.0,36,0.00,,,0.00,481.000000,,2013-04-17 22:33:00,
2013-04-17 15:53:00,44.0,18.0,-100.00,WNW,296,6.0,17.0,35,0.00,,,0.00,309.000000,,2013-04-17 22:53:00,
2013-04-17 16:02:00,44.0,18.0,-100.00,WNW,296,6.0,17.0,35,0.00,,,0.00,309.000000,,2013-04-17 23:02:00,
2013-04-17 16:12:00,44.0,18.0,-100.00,WNW,296,6.0,17.0,35,0.00,,,0.00,309.000000,,2013-04-17 23:12:00,
2013-04-17 16:22:00,44.0,18.0,-100.00,WNW,296,6.0,17.0,35,0.00,,,0.00,309.000000,,2013-04-17 23:22:00,
2013-04-17 16:32:00,44.0,18.0,-100.00,WNW,296,6.0,17.0,35,0.00,,,0.00,309.000000,,2013-04-17 23:32:00,
2013-04-17 16:52:00,43.0,20.0,-100.00,WNW,284,6.0,12.0,40,0.00,,,0.00,233.000000,,2013-04-17 23:52:00,
2013-04-17 17:02:00,43.0,20.0,-100.00,WNW,284,6.0,12.0,40,0.00,,,0.00,233.000000,,2013-04-18 00:02:00,
2013-04-17 17:12:00,43.0,20.0,-100.00,WNW,284,6.0,12.0,40,0.00,,,0.00,233.000000,,2013-04-18 00:12:00,
2013-04-17 17:22:00,43.0,20.0,-100.00,WNW,284,6.0,12.0,40,0.00,,,0.00,233.000000,,2013-04-18 00:22:00,
2013-04-17 17:32:00,43.0,20.0,-100.00,WNW,284,6.0,12.0,40,0.00,,,0.00,233.000000,,2013-04-18 00:32:00,
2013-04-17 17:52:00,42.0,22.0,-100.00,WNW,287,6.0,13.0,44,0.00,,,0.00,123.000000,,2013-04-18 00:52:00,
2013-04-17 18:02:00,42.0,22.0,-100.00,WNW,287,6.0,13.0,44,0.00,,,0.00,123.000000,,2013-04-18 01:02:00,
2013-04-17 18:12:00,42.0,22.0,-100.00,WNW,287,6.0,13.0,44,0.00,,,0.00,123.000000,,2013-04-18 01:12:00,
2013-04-17 18:22:00,42.0,22.0,-100.00,WNW,287,6.0,13.0,44,0.00,,,0.00,123.000000,,2013-04-18 01:22:00,
2013-04-17 18:32:00,42.0,22.0,-100.00,WNW,287,6.0,13.0,44,0.00,,,0.00,123.000000,,2013-04-18 01:32:00,
2013-04-17 18:52:00,43.0,23.0,-100.00,West,268,6.0,13.0,44,0.00,,,0.00,112.000000,,2013-04-18 01:52:00,
2013-04-17 19:02:00,43.0,23.0,-100.00,West,268,6.0,13.0,44,0.00,,,0.00,112.000000,,2013-04-18 02:02:00,
2013-04-17 19:12:00,43.0,23.0,-100.00,West,268,6.0,13.0,44,0.00,,,0.00,112.000000,,2013-04-18 02:12:00,
2013-04-17 19:22:00,43.0,23.0,-100.00,West,268,6.0,13.0,44,0.00,,,0.00,112.000000,,2013-04-18 02:22:00,
2013-04-17 19:32:00,43.0,23.0,-100.00,West,268,6.0,13.0,44,0.00,,,0.00,112.000000,,2013-04-18 02:32:00,
2013-04-17 20:02:00,39.0,19.0,-100.00,NW,321,8.0,15.0,45,0.00,,,0.00,77.000000,,2013-04-18 03:02:00,
2013-04-17 20:12:00,39.0,19.0,-100.00,NW,321,8.0,15.0,45,0.00,,,0.00,77.000000,,2013-04-18 03:12:00,
2013-04-17 20:22:00,39.0,19.0,-100.00,NW,321,8.0,15.0,45,0.00,,,0.00,77.000000,,2013-04-18 03:22:00,
2013-04-17 20:33:00,39.0,19.0,-100.00,NW,321,8.0,15.0,45,0.00,,,0.00,77.000000,,2013-04-18 03:33:00,
2013-04-17 20:53:00,36.0,22.0,-100.00,NNW,330,8.0,15.0,56,0.00,,,0.00,2.000000,,2013-04-18 03:53:00,
2013-04-17 21:03:00,36.0,22.0,-100.00,NNW,330,8.0,15.0,56,0.00,,,0.00,2.000000,,2013-04-18 04:03:00,
2013-04-17 21:13:00,36.0,22.0,-100.00,NNW,330,8.0,15.0,56,0.00,,,0.00,2.000000,,2013-04-18 04:13:00,
2013-04-17 21:23:00,36.0,22.0,-100.00,NNW,330,8.0,15.0,56,0.00,,,0.00,2.000000,,2013-04-18 04:23:00,
2013-04-17 21:32:00,36.0,22.0,-100.00,NNW,330,8.0,15.0,56,0.00,,,0.00,2.000000,,2013-04-18 04:32:00,
2013-04-17 21:53:00,35.0,24.0,-100.00,NW,324,9.0,15.0,64,0.00,,,0.00,0.000000,,2013-04-18 04:53:00,
2013-04-17 22:02:00,35.0,24.0,-100.00,NW,324,9.0,15.0,64,0.00,,,0.00,0.000000,,2013-04-18 05:02:00,
2013-04-17 22:12:00,35.0,24.0,-100.00,NW,324,9.0,15.0,64,0.00,,,0.00,0.000000,,2013-04-18 05:12:00,
2013-04-17 22:22:00,35.0,24.0,-100.00,NW,324,9.0,15.0,64,0.00,,,0.00,0.000000,,2013-04-18 05:22:00,
2013-04-17 22:32:00,35.0,24.0,-100.00,NW,324,9.0,15.0,64,0.00,,,0.00,0.000000,,2013-04-18 05:32:00,
2013-04-17 22:52:00,35.0,26.0,-100.00,NNW,337,8.0,14.0,70,0.00,,,0.00,0.000000,,2013-04-18 05:52:00,
2013-04-17 23:02:00,35.0,26.0,-100.00,NNW,337,8.0,14.0,70,0.00,,,0.00,0.000000,,2013-04-18 06:02:00,
2013-04-17 23:12:00,35.0,26.0,-100.00,NNW,337,8.0,14.0,70,0.00,,,0.00,0.000000,,2013-04-18 06:12:00,
2013-04-17 23:22:00,35.0,26.0,-100.00,NNW,337,8.0,14.0,70,0.00,,,0.00,0.000000,,2013-04-18 06:22:00,
2013-04-17 23:32:00,35.0,26.0,-100.00,NNW,337,8.0,14.0,70,0.00,,,0.00,0.000000,,2013-04-18 06:32:00,
2013-04-17 23:52:00,35.0,28.0,-100.00,NNW,336,6.0,14.0,75,0.00,,,0.00,0.000000,,2013-04-18 06:52:00,